Home   Weather   San Diego   Past weeks
Flag for USA

Past Weather in San Diego, California, USA — Yesterday and Last 2 Weeks

Now
59 °F

Passing clouds.


Feels Like: 58 °F
Forecast: 63 / 58 °F
Wind: 6 mph from Southwest

Location: San Diego - North Island

Current Time: May 26, 2019 at 8:49:37 pm

Latest Report: May 26, 2019 at 7:52 pm


Visibility: 10 mi

Pressure: 29.98 "Hg

Humidity: 75%

Dew Point: 51 °F

Location of San DiegoLocation

Past Weather in San Diego — Graph

°F

San Diego Temperature Yesterday

Maximum temperature yesterday: 65 °F (at 2:52 pm)
Minimum temperature yesterday: 55 °F (at 4:28 am)
Average temperature yesterday: 61 °F

High & Low Weather Summary for the Past Weeks

 TemperatureHumidityPressure
High69 °F (May 12, 11:52 am)93% (May 12, 1:52 am)30.04 "Hg (May 12, 1:52 am)
Low52 °F (May 18, 5:52 am)52% (May 16, 4:52 pm)29.74 "Hg (May 22, 4:52 am)
Average62 °F72%29.94 "Hg
* Reported May 11 6:52 pm — May 26 6:52 pm, San Diego. Weather by CustomWeather, © 2019

Note: Actual official high and low records may vary slightly from our data, if they occured in-between our weather recording intervals... More about our weather records

Advertising

San Diego Weather History for the Previous 24 Hours

Scroll right to see more
 ConditionsComfort  
Time TempWeatherWind HumidityBarometerVisibility
6:52 pm
Sun, May 26
61 °FPartly sunny.8 mph62%29.98 "Hg10 mi
5:52 pm61 °FPartly sunny.9 mph70%29.98 "Hg10 mi
4:52 pm62 °FPartly sunny.10 mph62%29.99 "Hg10 mi
3:52 pm63 °FBroken clouds.12 mph58%30.00 "Hg10 mi
2:52 pm64 °FBroken clouds.10 mph52%30.00 "Hg10 mi
1:52 pm64 °FMore clouds than sun.10 mph54%30.00 "Hg10 mi
12:52 pm62 °FMore clouds than sun.10 mph62%30.00 "Hg10 mi
11:52 am60 °FOvercast.10 mph69%30.00 "Hg10 mi
10:52 am61 °FMostly cloudy.13 mph67%29.98 "Hg10 mi
9:52 am61 °FMostly cloudy.12 mph67%29.96 "Hg10 mi
8:52 am61 °FMore clouds than sun.9 mph72%29.94 "Hg10 mi
7:52 am59 °FMostly cloudy.12 mph81%29.92 "Hg10 mi
7:06 am60 °FMostly cloudy.7 mph80%29.92 "Hg10 mi
6:44 am59 °FLight rain. Cloudy.9 mph81%29.90 "Hg8 mi
5:52 am60 °FOvercast.6 mph78%29.88 "Hg10 mi
5:31 am60 °FMostly cloudy.6 mph78%29.88 "Hg10 mi
4:52 am60 °FOvercast.5 mph78%29.87 "Hg10 mi
3:52 am59 °FOvercast.5 mph81%29.87 "Hg9 mi
2:52 am59 °FOvercast.No wind84%29.88 "Hg7 mi
1:52 am58 °FPassing clouds.No wind81%29.88 "Hg8 mi
12:52 am58 °FPassing clouds.No wind81%29.89 "Hg10 mi
11:52 pm
Sat, May 25
59 °FPassing clouds.No wind78%29.90 "Hg10 mi
10:52 pm60 °FPassing clouds.3 mph75%29.90 "Hg10 mi
10:16 pm60 °FPartly cloudy.No wind75%29.90 "Hg9 mi
9:52 pm61 °FPassing clouds.3 mph72%29.90 "Hg10 mi
8:52 pm61 °FPassing clouds.6 mph70%29.90 "Hg10 mi
Weather by CustomWeather, © 2019

See weather overview